Regional Weather Roundup
Issued by NWS

Home | Current Version | Previous Version | Text Only | Print | Product List | Glossary On
Versions: 1 2 3 4 5 6 7 8 9 10 11 12 13 14 15 16 17 18 19 20 21 22 23 24 25 26 27 28 29 30 31 32 33 34 35 36 37 38 39 40 41 42 43 44 45 46 47 48 49 50
000
ASUS44 KFWD 230415
RWRTX
NORTH TEXAS HOURLY WEATHER ROUNDUP
NATIONAL WEATHER SERVICE FORT WORTH TX
1100 PM CDT MON SEP 22 2014

NOTE: "FAIR" INDICATES FEW OR NO CLOUDS BELOW 12,000 FEET WITH NO
SIGNIFICANT WEATHER AND/OR OBSTRUCTIONS TO VISIBILITY.

TXZ118-119-230500-
DALLAS/FORT WORTH METROPLEX

CITY           SKY/WX    TMP DP  RH WIND       PRES   REMARKS
DFW AIRPORT    PTCLDY    73  52  47 E8        30.15S
DALLAS LOVE    MOCLDY    73  53  49 E8        30.15S
FTW MEACHAM    PTCLDY    75  52  44 NE8       30.15R
DAL-EXECUTIVE  PTCLDY    74  52  46 E8        30.15S
FTW-ALLIANCE   MOCLDY    69  52  54 NE3       30.15S
FTW-NAS-JRB    MOCLDY    77  50  38 NE6       30.19S
FTW-SPINKS     PTCLDY    71  51  48 CALM      30.17S
ARLINGTON      CLEAR     75  51  43 NE6       30.15S
GRAND PRAIRIE  PTCLDY    74  51  44 NE8       30.16S
ADDISON        PTCLDY    73  51  45 E6        30.18S
MESQUITE       PTCLDY    67  51  56 NE3       30.16S
LANCASTER      PTCLDY    68  50  52 NE5       30.17S
$$

TXZ091>094-102>105-117-120-121-131>134-230500-
NORTH CENTRAL TEXAS

CITY           SKY/WX    TMP DP  RH WIND       PRES   REMARKS
SHRMAN/DENISON PTCLDY    64  55  72 CALM      30.19S
GAINESVILLE    PTCLDY    65  53  65 NE3       30.19F
BOWIE          MOCLDY    65  53  65 E3        30.17F
BRIDGEPORT     MOCLDY    67  51  56 E5        30.18S
DECATUR        MOCLDY    67  52  58 E6        30.17S
DENTON         PTCLDY    71  52  50 E6        30.16S
MCKINNEY       CLEAR     67  53  61 CALM      30.16F
GREENVILLE     CLEAR     64  52  63 CALM      30.17S
ROCKWALL       CLEAR     67  54  61 E7        30.15S
TERRELL        CLEAR     66  53  63 NE5       30.16S
WAXAHACHIE     CLEAR     70  49  46 NE7       30.17R
CLEBURNE       MOCLDY    73  50  43 NE8       30.17R
GRANBURY       MOCLDY    74  51  43 E3        30.17R
$$

TXZ083>090-098>101-113>116-127>130-139>142-154-155-230500-
WESTERN NORTH TEXAS

CITY           SKY/WX    TMP DP  RH WIND       PRES   REMARKS
WICHITA FALLS  MOCLDY    68  54  60 E5        30.17R
WF-KICKAPOO    MOCLDY    70  51  49 SE5       30.17F
VERNON         PTCLDY    71  52  51 E7        30.18S
ABILENE        MOCLDY    77  60  55 E10       30.18S
ABILENE-DYESS  MOCLDY    76  57  50 E6        30.17R
BRECKENRIDGE   PTCLDY    75  47  36 E7        30.16F HAZE
GRAHAM         PTCLDY    73  49  43 E7        30.16R
MINERAL WELLS  MOCLDY    73  49  42 E9        30.15S
STEPHENVILLE   PTCLDY    71  50  47 CALM      30.19S
COMANCHE       CLEAR     72  55  55 SE3       30.17R
BROWNWOOD      CLOUDY    75  61  60 E9        30.16S
COLEMAN        PTCLDY    74  64  70 E3        30.18R
BRADY          CLEAR     73  64  73 E6        30.17R
$$

TXZ143>147-156>162-174-175-230500-
CENTRAL TEXAS

CITY           SKY/WX    TMP DP  RH WIND       PRES   REMARKS
WACO           PTCLDY    73  53  49 E8        30.13R
WACO-TSTC      CLEAR     68  57  68 CALM      30.14R
WACO-MCGREGOR  PTCLDY    73  52  46 E7        30.14S
HILLSBORO      CLEAR     72  49  44 NE10      30.15R
CORSICANA      CLEAR     71  53  52 NE8       30.15R
MEXIA          CLEAR     69  54  59 NE5       30.13R
HEARNE         PTCLDY    74  61  63 NE5       30.11S
CAMERON        PTCLDY    76  61  60 NE5       30.12R
TEMPLE         PTCLDY    73  55  53 NE9       30.13R
KILLEEN        CLEAR     79  55  44 E8        30.14R
KILLEEN-SKYLRK PTCLDY    75  57  53 NE9       30.13S
FORT HOOD      PTCLDY    77  58  51 NE6       30.14R
GATESVILLE     PTCLDY    75  54  46 E5        30.16S
HAMILTON       PTCLDY    73  57  56 E5        30.17R
LAMPASAS       PTCLDY    76  64  67 NE7       30.14S
$$

TXZ095>097-106>112-122>126-135>138-148>153-164>167-230500-
EAST TEXAS

CITY           SKY/WX    TMP DP  RH WIND       PRES   REMARKS
PARIS          CLEAR     64  50  59 E5        30.19R
SULPHUR SPRNGS CLEAR     64  52  64 E3        30.19S
MOUNT PLEASANT CLEAR     65  54  68 CALM      30.18S
GILMER         CLEAR     68  55  64 NE7       30.18S
MINEOLA        CLEAR     63  55  77 CALM      30.17S
TYLER          CLEAR     67  54  63 NE6       30.15R
LONGVIEW       CLEAR     68  53  58 NE6       30.15R
MARSHALL       CLEAR     68  56  65 CALM      30.18S
ATHENS         CLEAR     68  52  56 NE6       30.14S
PALESTINE      CLEAR     69  54  59 NE6       30.15R
JACKSONVILLE   CLEAR     68  52  55 NE5       30.16S
HENDERSON      CLEAR     68  53  59 NE5       30.16S
NACOGDOCHES    CLEAR     68  52  56 NE6       30.14R
LUFKIN         CLEAR     73  54  51 NE7       30.11R
$$

SUPPLEMENTAL OBSERVATIONS (CENTRAL)

CITY           SKY/WX    TMP DP  RH WIND       PRES   REMARKS
LAKE TEXOMA      N/A     66  54  63 E2          N/A
CADDO GRASSLND   N/A     61  57  88 CALM        N/A
PAT MAYSE LAKE   N/A     66  54  63 NE3         N/A
PALESTINE        N/A     64  54  68 CALM        N/A
LAKE LIMESTONE   N/A     72  55  56 NE7         N/A
MCGREGOR         N/A     72  55  56 E3          N/A
TEMPLE           N/A     73  57  56 NE8         N/A
$$

SUPPLEMENTAL OBSERVATIONS (WEST)

CITY           SKY/WX    TMP DP  RH WIND       PRES   REMARKS
MILLERS CREEK    N/A     72  48  43 E5          N/A
POSSUM KINGDOM   N/A     73  48  40 E8          N/A
LBJ GRASSLAND    N/A     70  52  52 E6          N/A
GRANBURY         N/A     73  48  40 SE3         N/A
COMANCHE         N/A     72  55  56 SE5         N/A
HAMBY            N/A     75  57  53 E8          N/A
IVIE RESERVOIR   N/A     75  64  69 E6          N/A
COLORADO BEND    N/A    N/A N/A N/A E5          N/A
$$

SUPPLEMENTAL OBSERVATIONS (EAST)

CITY           SKY/WX    TMP DP  RH WIND       PRES   REMARKS
CLARKSVILLE      N/A     64  54  68 NE1         N/A
TEXARKANA        N/A     55  52  88 CALM        N/A
LINDEN           N/A     61  55  82 CALM        N/A
CADDO LAKE       N/A     61  57  88 N1          N/A
GILMER           N/A     66  54  63 E2          N/A
HENDERSON        N/A     68  52  56 NE6         N/A
LUFKIN           N/A     68  54  60 MISG        N/A
N SABINE NF      N/A     66  54  63 MISG        N/A
$$

SUPPLEMENTAL OBSERVATIONS ARE A COLLECTION OF AUTOMATED INSTRUMENTS
THAT ARE MAINTAINED BY A VARIETY OF FEDERAL AND STATE AGENCIES.
CERTAIN ELEMENTS...SUCH AS HUMIDITY VALUES AND SUSTAINED WIND
SPEEDS...MAY BE APPROXIMATED.



USA.gov is the U.S. government's official web portal to all federal, state and local government web resources and services.